Home   Weather   Kongsvinger   Past weeks
Flag for Norway

Past Weather in Kongsvinger, Norway — Yesterday and Last 2 Weeks

Now
21 °F

Clear.


Feels Like: 21 °F
Forecast: 36 / 24 °F
Wind: 2 mph from North

Location: Oslo Gardermoen Airport

Current Time: Dec 8, 2019 at 3:46:36 am

Latest Report: Dec 8, 2019 at 3:20 am


Visibility: 10 mi

Pressure: 29.27 "Hg

Humidity: 93%

Dew Point: 19 °F

Location of KongsvingerLocation

Past Weather in Kongsvinger — Graph

°F

Kongsvinger Temperature Yesterday

Maximum temperature yesterday: 34 °F (at 6:20 am)
Minimum temperature yesterday: 25 °F (at 9:50 pm)
Average temperature yesterday: 31 °F

High & Low Weather Summary for the Past Weeks

 TemperatureHumidityPressure
High41 °F (Dec 5, 9:20 pm)100% (Nov 23, 2:50 am)30.15 "Hg (Nov 23, 2:50 am)
Low9 °F (Dec 1, 12:20 am)64% (Nov 29, 9:50 am)28.97 "Hg (Dec 6, 5:20 am)
Average29 °F93%29.66 "Hg
* Reported Nov 23 2:50 am — Dec 8 2:50 am, Kongsvinger. Weather by CustomWeather, © 2019

Note: Actual official high and low records may vary slightly from our data, if they occured in-between our weather recording intervals... More about our weather records

Kongsvinger Weather History for the Previous 24 Hours

Scroll right to see more
 ConditionsComfort  
Time TempWeatherWind HumidityBarometerVisibility
2:50 am
Sun, Dec 8
21 °FClear.No wind93%29.27 "Hg10 mi
2:20 am21 °FClear.2 mph93%29.30 "Hg10 mi
1:50 am21 °FClear.No wind86%29.30 "Hg10 mi
1:20 am23 °FClear.2 mph86%29.30 "Hg10 mi
12:50 am21 °FPassing clouds.3 mph86%29.33 "HgN/A
12:20 am25 °FClear.2 mph80%29.33 "Hg10 mi
11:50 pm
Sat, Dec 7
25 °FClear.1 mph86%29.33 "Hg10 mi
11:20 pm25 °FClear.3 mph86%29.33 "Hg10 mi
10:50 pm25 °FClear.2 mph80%29.33 "Hg10 mi
10:20 pm25 °FClear.2 mph86%29.36 "Hg10 mi
9:50 pm25 °FClear.2 mph86%29.36 "Hg10 mi
9:20 pm27 °FClear.2 mph86%29.36 "Hg10 mi
8:50 pm27 °FClear.2 mph80%29.36 "Hg10 mi
8:20 pm27 °FClear.2 mph80%29.33 "Hg10 mi
7:50 pm27 °FClear.3 mph80%29.33 "Hg10 mi
7:20 pm27 °FClear.3 mph86%29.33 "Hg10 mi
6:50 pm27 °FClear.2 mph86%29.33 "Hg10 mi
6:20 pm28 °FPassing clouds.3 mph80%29.33 "HgN/A
5:50 pm32 °FClear.5 mph69%29.33 "Hg10 mi
5:20 pm34 °FClear.3 mph65%29.30 "Hg10 mi
4:50 pm30 °FPassing clouds.5 mph80%29.30 "HgN/A
4:20 pm30 °FPassing clouds.3 mph86%29.27 "HgN/A
3:50 pm32 °FPassing clouds.5 mph80%29.27 "HgN/A
3:20 pm32 °FPassing clouds.6 mph80%29.27 "HgN/A
2:50 pm34 °FSunny.2 mph75%29.24 "Hg10 mi
2:20 pm34 °FSunny.2 mph81%29.24 "Hg10 mi
1:50 pm34 °FSunny.2 mph81%29.24 "Hg10 mi
12:50 pm34 °FSunny.2 mph81%29.21 "Hg10 mi
12:20 pm34 °FPassing clouds.3 mph81%29.18 "HgN/A
11:50 am32 °FPassing clouds.3 mph93%29.18 "HgN/A
11:20 am32 °FPassing clouds.3 mph93%29.18 "HgN/A
10:50 am32 °FPassing clouds.3 mph93%29.18 "HgN/A
10:20 am32 °FFog.5 mph93%29.18 "HgN/A
9:50 am32 °FFog.3 mph93%29.15 "HgN/A
9:20 am32 °FFog.5 mph93%29.15 "HgN/A
8:50 am32 °FPassing clouds.5 mph100%29.12 "HgN/A
8:20 am32 °FSleet. Partly cloudy.5 mph100%29.12 "HgN/A
7:50 am32 °FPassing clouds.3 mph100%29.12 "HgN/A
7:20 am32 °FPartly cloudy.2 mph100%29.09 "Hg6 mi
6:50 am34 °FPassing clouds.6 mph93%29.09 "HgN/A
6:20 am34 °FLight rain. Partly cloudy.5 mph93%29.09 "HgN/A
5:50 am32 °FLight rain. Passing clouds.3 mph100%29.09 "HgN/A
5:20 am32 °FLight rain. Partly cloudy.5 mph100%29.09 "Hg6 mi
4:50 am32 °FPassing clouds.3 mph100%29.06 "Hg6 mi
4:20 am32 °FScattered showers. Passing clouds.3 mph100%29.06 "Hg6 mi
3:50 am32 °FSleet. Partly cloudy.5 mph100%29.06 "HgN/A
3:20 am32 °FSleet. Passing clouds.1 mph100%29.09 "Hg4 mi
Weather by CustomWeather, © 2019

See weather overview

Advertising